GW0416 Weather Reports


Display with metric or nautical units.
time (UTC)temp
F
wind
direction
speed
MPH
gust
MPH
rain 1hr
in
rain 24hr
in
rain mn
in
humidity
%
barometer
mb
20260502163038 59 34 15.0 22.0 0.00 0.00 0.00 45 1019.9
20260502161531 59 38 16.0 25.0 0.00 0.00 0.00 46 1020.0
20260502151555 58 45 14.0 21.0 0.00 0.00 0.00 46 1019.5
20260502123035 45 33 12.0 15.0 0.00 0.00 0.00 62 1018.6
20260502121533 44 30 12.0 15.0 0.00 0.00 0.00 63 1018.5
20260502114531 44 15 12.0 17.0 0.00 0.00 0.00 62 1018.2
20260502113040 45 9 12.0 19.0 0.00 0.00 0.00 58 1018.0
20260502111528 47 17 16.0 21.0 0.00 0.00 0.00 58 1017.6
20260502110035 46 25 12.0 17.0 0.00 0.00 0.00 56 1017.4
20260502104531 48 16 13.0 18.0 0.00 0.00 0.00 53 1017.3
20260502103030 49 43 12.0 18.0 0.00 0.00 0.00 51 1016.9
20260502101530 49 51 14.0 21.0 0.00 0.00 0.00 51 1016.6
20260502091530 49 17 10.0 13.0 0.00 0.00 0.00 48 1016.2
20260502071531 53 348 7.0 10.0 0.00 0.00 0.00 37 1015.4
20260502070044 50 360 5.0 9.0 0.00 0.00 0.00 40 1015.5
20260502064530 51 342 6.0 10.0 0.00 0.00 0.00 39 1015.5
20260502063040 52 5 8.0 11.0 0.00 0.00 0.00 37 1015.4
20260502061532 52 5 9.0 12.0 0.00 0.00 0.00 37 1015.3
20260502060031 52 26 8.0 10.0 0.00 0.00 0.00 37 1015.2
20260502054535 56 355 10.0 12.0 0.00 0.00 0.00 34 1015.3
20260502053031 56 346 9.0 12.0 0.00 0.00 0.00 34 1015.2
20260502051530 55 323 5.0 8.0 0.00 0.00 0.00 35 1015.2
20260502050037 51 346 4.0 8.0 0.00 0.00 0.00 36 1015.2
20260502044530 54 312 7.0 10.0 0.00 0.00 0.00 34 1015.1
20260502043031 53 302 4.0 8.0 0.00 0.00 0.00 34 1015.1
20260502041531 55 314 5.0 8.0 0.00 0.00 0.00 32 1015.1
20260502040030 58 315 4.0 10.0 0.00 0.00 0.00 28 1015.0
20260502034528 59 337 6.0 11.0 0.00 0.00 0.00 27 1015.0
20260502033031 60 309 7.0 11.0 0.00 0.00 0.00 26 1015.0
20260502031532 60 339 8.0 11.0 0.00 0.00 0.00 26 1014.8
20260502030031 64 298 5.0 9.0 0.00 0.00 0.00 21 1014.6
20260502024532 66 300 4.0 10.0 0.00 0.00 0.00 21 1014.3
20260502023030 69 319 5.0 12.0 0.00 0.00 0.00 20 1014.2
20260502021528 69 236 6.0 10.0 0.00 0.00 0.00 21 1014.2
20260502020032 69 337 0.0 3.0 0.00 0.00 0.00 23 1014.2
20260502014535 71 0 0.0 0.0 0.00 0.00 0.00 22 1014.2
20260502013029 72 0 1.0 4.0 0.00 0.00 0.00 21 1014.2
20260502011531 72 300 1.0 4.0 0.00 0.00 0.00 21 1014.3
20260502010033 72 294 2.0 9.0 0.00 0.00 0.00 20 1014.3
20260502004532 73 337 4.0 13.0 0.00 0.00 0.00 20 1014.5
20260502003030 73 17 2.0 6.0 0.00 0.00 0.00 20 1014.5
20260502001533 72 9 5.0 15.0 0.00 0.00 0.00 21 1014.7
20260502000055 72 321 4.0 13.0 0.00 0.00 0.00 20 1014.7
20260501234534 72 338 9.0 16.0 0.00 0.00 0.00 21 1014.8
20260501233028 72 318 12.0 21.0 0.00 0.00 0.00 21 1014.9
20260501231531 73 326 8.0 13.0 0.00 0.00 0.00 21 1014.9
20260501230033 72 277 12.0 21.0 0.00 0.00 0.00 21 1015.1
20260501224554 72 286 12.0 19.0 0.00 0.00 0.00 20 1015.3
20260501223029 72 296 4.0 12.0 0.00 0.00 0.00 21 1015.2
20260501221528 72 302 12.0 20.0 0.00 0.00 0.00 21 1015.4
20260501220034 72 288 17.0 23.0 0.00 0.00 0.00 22 1015.4
20260501214529 72 224 4.0 16.0 0.00 0.00 0.00 23 1015.5
20260501213029 72 266 10.0 18.0 0.00 0.00 0.00 23 1015.8
20260501211530 71 0 6.0 18.0 0.00 0.00 0.00 22 1016.0
20260501210030 71 301 6.0 15.0 0.00 0.00 0.00 22 1016.1
20260501204529 70 248 6.0 16.0 0.00 0.00 0.00 20 1016.3
20260501203032 70 277 6.0 14.0 0.00 0.00 0.00 20 1016.3
20260501201528 69 9 10.0 18.0 0.00 0.00 0.00 21 1016.5
20260501200038 69 207 9.0 17.0 0.00 0.00 0.00 21 1016.5
20260501194540 69 233 5.0 16.0 0.00 0.00 0.00 20 1016.7
20260501193035 68 227 5.0 15.0 0.00 0.00 0.00 22 1016.7
20260501191531 69 289 7.0 15.0 0.00 0.00 0.00 21 1016.9
20260501190037 68 250 9.0 20.0 0.00 0.00 0.00 22 1016.9
20260501184532 67 33 5.0 15.0 0.00 0.00 0.00 23 1017.2
20260501183036 66 217 4.0 14.0 0.00 0.00 0.00 23 1017.2
20260501181529 66 225 10.0 18.0 0.00 0.00 0.00 25 1017.4
20260501180035 65 264 7.0 13.0 0.00 0.00 0.00 26 1017.5
20260501174532 65 253 9.0 14.0 0.00 0.00 0.00 28 1017.6
20260501173044 64 289 10.0 18.0 0.00 0.00 0.00 27 1017.6
20260501171533 64 290 12.0 18.0 0.00 0.00 0.00 30 1017.7
20260501170032 64 260 12.0 21.0 0.00 0.00 0.00 31 1017.8